Sturgis, MI

2:42 PM EST on February 21, 2017 (GMT -0500)
Kirsch Municipal

Weather History for KIRS - March, 2013

Change the Weather History Date:

Tuesday, March 12, 2013

  Actual Average (KHAI) Record (KHAI)
Temperature  
Mean Temperature 30 °F -  
Max Temperature 33 °F 45 °F 75 °F (1990)
Min Temperature 28 °F 26 °F 5 °F (1960)
Degree Days  
Heating Degree Days 34    
Moisture  
Dew Point 28 °F    
Average Humidity 87    
Maximum Humidity 100    
Minimum Humidity 69    
Precipitation  
Precipitation 0.00 in - - ()
Sea Level Pressure  
Sea Level Pressure 29.85 in    
Wind  
Wind Speed 12 mph (WSW)    
Max Wind Speed 16 mph    
Max Gust Speed 24 mph    
Visibility 8 miles    
Events Snow    
Averages and records for this station are not official NWS values.
T = Trace of Precipitation, MM = Missing Value Source: NWS Daily Summary

Daily Weather History Graph

Daily Weather History Graph

Search for Another Location

Airport or City:

Trip Planner

Search our weather history database for the weather conditions in past years. The results will help you decide how hot, cold, wet, or windy it might be!

Date:

Astronomy

Mar. 12, 2013 Rise Set
Actual Time 7:58 AM EDT 7:45 PM EDT
Civil Twilight 7:30 AM EDT 8:12 PM EDT
Nautical Twilight 6:58 AM EDT 8:45 PM EDT
Astronomical Twilight 6:25 AM EDT 9:18 PM EDT
Moon 8:03 AM EDT (3/12) 9:01 PM EDT (3/12)
Length of Visible Light 12h 42m
Length of Day
11h 47m
New Moon, 1% of the Moon is Illuminated
Mar 12
New Moon
Mar 19
First Quarter
Mar 27
Full
Apr 3
Last Quarter
Apr 10
New

Hourly Weather History & Observations

Time (EDT) Temp. Windchill Dew Point Humidity Pressure Visibility Wind Dir Wind Speed Gust Speed Precip Events Conditions
12:14 AM 33.8 °F 24.3 °F 30.2 °F 87% 29.73 in 10.0 mi WSW 13.8 mph 18.4 mph N/A   Overcast
12:35 AM 33.8 °F 25.3 °F 30.2 °F 87% 29.73 in 10.0 mi WSW 11.5 mph 18.4 mph N/A   Overcast
12:55 AM 33.8 °F 25.3 °F 30.2 °F 87% 29.73 in 10.0 mi West 11.5 mph 18.4 mph N/A   Overcast
1:14 AM 33.8 °F 24.8 °F 30.2 °F 87% 29.74 in 10.0 mi West 12.7 mph 21.9 mph N/A   Overcast
1:34 AM 33.8 °F 25.3 °F 30.2 °F 87% 29.75 in 10.0 mi West 11.5 mph 24.2 mph N/A   Overcast
1:54 AM 33.8 °F 25.3 °F 30.2 °F 87% 29.74 in 10.0 mi West 11.5 mph 23.0 mph N/A   Overcast
2:14 AM 33.8 °F 24.3 °F 30.2 °F 87% 29.76 in 10.0 mi West 13.8 mph 20.7 mph N/A   Overcast
2:35 AM 32.0 °F 22.5 °F 30.2 °F 93% 29.76 in 5.0 mi WSW 12.7 mph 16.1 mph N/A   Overcast
2:54 AM 32.0 °F 23.6 °F 30.2 °F 93% 29.77 in 7.0 mi WSW 10.4 mph 16.1 mph N/A   Overcast
3:15 AM 32.0 °F 22.5 °F 30.2 °F 93% 29.77 in 4.0 mi WSW 12.7 mph 17.3 mph N/A Snow Light Snow
3:35 AM 32.0 °F 22.5 °F 30.2 °F 93% 29.77 in 10.0 mi WSW 12.7 mph - N/A   Overcast
3:54 AM 32.0 °F 23.6 °F 30.2 °F 93% 29.77 in 2.0 mi West 10.4 mph 19.6 mph N/A Snow Light Snow
4:15 AM 32.0 °F 24.2 °F 30.2 °F 93% 29.76 in 10.0 mi West 9.2 mph - N/A   Overcast
4:35 AM 32.0 °F 23.0 °F 30.2 °F 93% 29.77 in 7.0 mi West 11.5 mph - N/A   Overcast
4:54 AM 32.0 °F 23.0 °F 30.2 °F 93% 29.77 in 2.5 mi West 11.5 mph 16.1 mph N/A Snow Light Snow
5:15 AM 32.0 °F 23.0 °F 30.2 °F 93% 29.78 in 10.0 mi West 11.5 mph - N/A   Overcast
5:35 AM 32.0 °F 23.0 °F 30.2 °F 93% 29.79 in 10.0 mi West 11.5 mph - N/A   Overcast
5:54 AM 32.0 °F 23.0 °F 30.2 °F 93% 29.79 in 5.0 mi West 11.5 mph - N/A   Overcast
6:15 AM 32.0 °F 23.0 °F 30.2 °F 93% 29.80 in 4.0 mi West 11.5 mph 17.3 mph N/A Snow Light Snow
6:35 AM 30.2 °F 20.8 °F 30.2 °F 100% 29.80 in 5.0 mi West 11.5 mph 17.3 mph N/A   Overcast
6:54 AM 30.2 °F 19.3 °F 28.4 °F 93% 29.81 in 7.0 mi West 15.0 mph 19.6 mph N/A   Overcast
7:15 AM 30.2 °F 20.2 °F 28.4 °F 93% 29.82 in 10.0 mi West 12.7 mph 19.6 mph N/A   Overcast
7:34 AM 30.2 °F 21.3 °F 28.4 °F 93% 29.82 in 7.0 mi West 10.4 mph 18.4 mph N/A   Overcast
7:54 AM 30.2 °F 20.8 °F 28.4 °F 93% 29.82 in 5.0 mi West 11.5 mph 19.6 mph N/A   Overcast
8:15 AM 30.2 °F 19.3 °F 28.4 °F 93% 29.83 in 5.0 mi West 15.0 mph 21.9 mph N/A   Overcast
8:34 AM 30.2 °F 20.2 °F 28.4 °F 93% 29.83 in 5.0 mi West 12.7 mph 18.4 mph N/A   Overcast
8:55 AM 30.2 °F 21.3 °F 28.4 °F 93% 29.84 in 7.0 mi West 10.4 mph 16.1 mph N/A   Overcast
9:15 AM 30.2 °F 20.2 °F 28.4 °F 93% 29.85 in 5.0 mi WSW 12.7 mph 16.1 mph N/A   Overcast
9:34 AM 30.2 °F 20.2 °F 28.4 °F 93% 29.85 in 7.0 mi WSW 12.7 mph 18.4 mph N/A   Overcast
9:55 AM 30.2 °F 20.8 °F 28.4 °F 93% 29.86 in 5.0 mi WSW 11.5 mph - N/A   Overcast
10:15 AM 30.2 °F 19.8 °F 28.4 °F 93% 29.86 in 4.0 mi WSW 13.8 mph 18.4 mph N/A   Overcast
10:34 AM 30.2 °F 20.2 °F 28.4 °F 93% 29.86 in 4.0 mi WSW 12.7 mph 18.4 mph N/A   Overcast
10:55 AM 30.2 °F 19.3 °F 26.6 °F 86% 29.87 in 5.0 mi WSW 15.0 mph 18.4 mph N/A   Overcast
11:15 AM 30.2 °F 21.3 °F 26.6 °F 86% 29.86 in 7.0 mi WSW 10.4 mph - N/A   Overcast
11:34 AM 30.2 °F 21.9 °F 26.6 °F 86% 29.87 in 5.0 mi WSW 9.2 mph - N/A   Overcast
11:55 AM 30.2 °F 20.2 °F 26.6 °F 86% 29.87 in 5.0 mi West 12.7 mph - N/A   Overcast
12:14 PM 30.2 °F 21.3 °F 26.6 °F 86% 29.88 in 4.0 mi WSW 10.4 mph - N/A   Overcast
12:35 PM 30.2 °F 21.3 °F 26.6 °F 86% 29.88 in 7.0 mi WSW 10.4 mph - N/A   Overcast
12:55 PM 30.2 °F 20.2 °F 26.6 °F 86% 29.89 in 10.0 mi WSW 12.7 mph - N/A   Overcast
1:14 PM 30.2 °F 19.8 °F 26.6 °F 86% 29.89 in 5.0 mi WSW 13.8 mph - N/A   Overcast
1:35 PM 30.2 °F 20.8 °F 26.6 °F 86% 29.89 in 5.0 mi WSW 11.5 mph - N/A   Haze
1:54 PM 30.2 °F 19.3 °F 26.6 °F 86% 29.89 in 10.0 mi WSW 15.0 mph 18.4 mph N/A   Overcast
2:15 PM 30.2 °F 19.8 °F 26.6 °F 86% 29.89 in 10.0 mi WSW 13.8 mph 18.4 mph N/A   Overcast
2:35 PM 30.2 °F 20.8 °F 26.6 °F 86% 29.88 in 10.0 mi WSW 11.5 mph - N/A   Overcast
2:54 PM 30.2 °F 18.9 °F 26.6 °F 86% 29.88 in 10.0 mi WSW 16.1 mph - N/A   Overcast
3:15 PM 32.0 °F 22.1 °F 24.8 °F 75% 29.88 in 10.0 mi WSW 13.8 mph 18.4 mph N/A   Overcast
3:35 PM 32.0 °F 21.2 °F 26.6 °F 80% 29.87 in 10.0 mi WSW 16.1 mph 21.9 mph N/A   Overcast
3:54 PM 33.8 °F 24.3 °F 26.6 °F 75% 29.87 in 10.0 mi WSW 13.8 mph - N/A   Overcast
4:15 PM 33.8 °F 23.9 °F 26.6 °F 75% 29.87 in 10.0 mi WSW 15.0 mph - N/A   Overcast
4:34 PM 33.8 °F 24.3 °F 26.6 °F 75% 29.88 in 10.0 mi West 13.8 mph 20.7 mph N/A   Overcast
4:55 PM 33.8 °F 24.3 °F 24.8 °F 70% 29.88 in 10.0 mi WSW 13.8 mph 20.7 mph N/A   Overcast
5:15 PM 33.8 °F 24.3 °F 26.6 °F 75% 29.88 in 10.0 mi WSW 13.8 mph 19.6 mph N/A   Overcast
5:34 PM 33.8 °F 23.9 °F 24.8 °F 70% 29.89 in 10.0 mi WSW 15.0 mph 20.7 mph N/A   Overcast
5:55 PM 33.8 °F 25.3 °F 24.8 °F 70% 29.90 in 10.0 mi West 11.5 mph 20.7 mph N/A Snow Light Snow
6:15 PM 32.0 °F 22.5 °F 24.8 °F 75% 29.90 in 10.0 mi West 12.7 mph 16.1 mph N/A Snow Light Snow
6:34 PM 32.0 °F 24.2 °F 24.8 °F 75% 29.89 in 10.0 mi West 9.2 mph - N/A   Overcast
6:55 PM 33.8 °F 26.4 °F 24.8 °F 70% 29.89 in 10.0 mi West 9.2 mph - N/A   Overcast
7:15 PM 33.8 °F 27.7 °F 24.8 °F 70% 29.89 in 10.0 mi West 6.9 mph - N/A   Mostly Cloudy
7:34 PM 32.0 °F 24.8 °F 23.0 °F 69% 29.89 in 10.0 mi West 8.1 mph - N/A   Scattered Clouds
7:55 PM 32.0 °F 25.6 °F 24.8 °F 75% 29.90 in 10.0 mi WSW 6.9 mph - N/A   Overcast
8:15 PM 32.0 °F 23.6 °F 26.6 °F 80% 29.90 in 10.0 mi SW 10.4 mph - N/A   Overcast
8:34 PM 32.0 °F 21.2 °F 26.6 °F 80% 29.90 in 10.0 mi WSW 16.1 mph - N/A   Overcast
8:55 PM 30.2 °F 21.9 °F 28.4 °F 93% 29.91 in 1.0 mi WSW 9.2 mph - N/A Snow Snow
9:14 PM 30.2 °F 23.4 °F 28.4 °F 93% 29.91 in 3.0 mi WSW 6.9 mph - N/A Snow Light Snow
9:34 PM 30.2 °F 20.8 °F 28.4 °F 93% 29.90 in 4.0 mi SW 11.5 mph 17.3 mph N/A Snow Light Snow
9:55 PM 30.2 °F 21.9 °F 28.4 °F 93% 29.91 in 10.0 mi WSW 9.2 mph - N/A   Overcast
10:15 PM 30.2 °F 22.6 °F 28.4 °F 93% 29.91 in 10.0 mi WSW 8.1 mph - N/A   Overcast
10:34 PM 30.2 °F 21.3 °F 28.4 °F 93% 29.90 in 10.0 mi WSW 10.4 mph - N/A   Overcast
10:55 PM 28.4 °F 19.1 °F 26.6 °F 93% 29.90 in 10.0 mi WSW 10.4 mph - N/A   Mostly Cloudy
11:14 PM 30.2 °F 21.3 °F 28.4 °F 93% 29.90 in 7.0 mi WSW 10.4 mph - N/A Snow Light Snow
11:35 PM 28.4 °F 20.4 °F 26.6 °F 93% 29.90 in 7.0 mi SW 8.1 mph - N/A   Mostly Cloudy
11:54 PM 28.4 °F 18.5 °F 28.4 °F 100% 29.90 in 7.0 mi WSW 11.5 mph - N/A   Mostly Cloudy